Regional Weather Roundup
Issued by NWS Portland, ME

Current Version | Previous Version | Text Only | Print | Product List | Glossary Off
Versions: 1 2 3 4 5 6 7 8 9 10 11 12 13 14 15 16 17 18 19 20 21 22 23 24 25 26 27 28 29 30 31 32 33 34 35 36 37 38 39 40 41 42 43 44 45 46 47 48 49 50

000
ASUS41 KGYX 230705
RWRGYX
WEATHER ROUNDUP FOR MAINE AND NEW HAMPSHIRE
NATIONAL WEATHER SERVICE GRAY ME
300 AM EDT WED AUG 23 2017

MEZ002-005-006-010-012-015-018-020-021-024-026-027-029-230800-
MAINE

CITY           SKY/WX    TMP DP  RH WIND       PRES   REMARKS
PORTLAND       LGT RAIN  69  68  96 S8        29.67S
SANFORD        LGT RAIN  70  68  93 SW8       29.67
BAR HARBOR     CLOUDY    66  65  96 S13       29.65F
WISCASSET      LGT RAIN  70  68  93 SW9       29.68R
ROCKLAND       LGT RAIN  68  67  96 SW13      29.65S
FRYEBURG       MOCLDY    70  69  97 SW7       29.64S
LEWISTONAUBURN LGT RAIN  69  68  96 S12       29.64F
AUGUSTA        LGT RAIN  69  68  96 SW8       29.63S
WATERVILLE     CLOUDY    70  69  97 S7        29.60R
BANGOR         CLOUDY    71  68  90 S9        29.60S FOG
GREENVILLE       N/A     67  66  97 CALM      29.58S
MILLINOCKET    LGT RAIN  71  70  96 CALM      29.57S FOG
HOULTON        LGT RAIN  72  70  93 S7        29.53F
PRESQUE ISLE   CLOUDY    70  67  90 S9        29.53R
FRENCHVILLE    LGT RAIN  66  63  90 SW9       29.49S
CARIBOU        CLOUDY    68  66  93 SW6       29.50F
$$

NHZ002-005-008-009-011-012-014-230800-
NEW HAMPSHIRE

CITY           SKY/WX    TMP DP  RH WIND       PRES   REMARKS
PORTSMOUTH     LGT RAIN  71  70  96 SW3       29.66F
ROCHESTER      LGT RAIN  70  67  90 CALM      29.67F
NASHUA         CLOUDY    72  72 100 CALM      29.68F
MANCHESTER     CLOUDY    72  69  90 CALM      29.67S
CONCORD        CLOUDY    70  69  97 S7        29.67F
LACONIA        CLOUDY    69  67  93 SW9       29.67S
PLYMOUTH       FAIR      69  65  90 CALM      29.65S
BERLIN         CLOUDY    68  63  84 E8        29.63F
WHITEFIELD     CLOUDY    67  64  90 CALM      29.64S
JAFFREY        LGT RAIN  72  70  93 SW5       29.72S
KEENE            N/A    N/A N/A N/A MISG        N/A
LEBANON        MOCLDY    70  66  87 S8        29.66S
MT WASHINGTON  FOG       52  52 100 W37G46      N/A  VSB 0
$$

VTZ005-007-008-230800-
VERMONT

CITY           SKY/WX    TMP DP  RH WIND       PRES   REMARKS
ST JOHNSBURY     N/A     68  68 100 MISG      29.61S
MONTPELIER     PTCLDY    69  64  84 SW10      29.67S
BURLINGTON     MOCLDY    70  68  93 S9        29.61R
$$

MAZ007-012-024-CTZ003-RIZ002-NYZ038-NYZ072-230800-
SOUTHERN NEW ENGLAND AND NY

CITY           SKY/WX    TMP DP  RH WIND       PRES   REMARKS
BOSTON         CLOUDY    75  73  93 SW16G29   29.69F
WORCESTER      CLOUDY    72  69  90 SW16G25   29.73S
NANTUCKET      CLOUDY    70  70 100 S16       29.80F FOG
PROVIDENCE     LGT RAIN  76  73  91 SW15      29.74S
HARTFORD       CLOUDY    74  73  97 SW9       29.71F
ALBANY         CLOUDY    71  64  78 W8        29.72R
NEW YORK CITY  CLOUDY    74  72  93 SW13G22   29.75F
$$

ANZ081-ANZ082-ANZ150-NHZ014-MEZ023>029-230800-
COASTAL MARINE OBSERVATIONS

STATION/POSITION TIME  TEMP    WIND        PRES    WAVE
                       AIR SEA DIR/SP/G            HT/PER
                 (UTC) (F)     (DEG/KT/KT) (MB)    (FT/S)
MOUNT DESERT ROC 0700   61                 1005.2R
MATINICUS ROCK   0600   64     220/ 24/ 25 1004.8R
ISLE OF SHOALS   0600   69     220/ 16/ 17 1005.5F
JEFFREYS LEDGE   0606      65                N/A     5/ 6
CASHES LEDGE BUO 0550   70 69              1005.2    7/ 6
GEORGES BANK BUO 0550   70 66              1012.9    4/ 6
$$

.............KEY..............
   WCI - WIND CHILL
   TC  - TEMPERATURE IN CELSIUS
   VSB - VISIBILITY IN MILES
   HX  - HEAT INDEX
   FAIR- INDICATES FEW OR NO CLOUDS BELOW 12,000 FT, WITH NO
         SIGNIFICANT WEATHER AND/OR OBSTRUCTIONS TO VISIBILITY.






USA.gov is the U.S. government's official web portal to all federal, state and local government web resources and services.